Los Alamitos Army Air Field Los Alamitos US
ICAO: KSLI
IATA: SLI
Category: Medium
Scheduled Services: No

Elevation: 32 ft
TransAlt. 18000 ft.

Airport Communications:
SOCAL APP/DEP:124.65
AFLD OPS ADVSY SVC:126.2
GND:126.95
AASF OPS:41.5
PMSV METRO:23.98
ARCOM OPS:139.05
TWR:123.85

KSLI Zoom In..

If you have problems with the map follow the link
https://www.worldairports.se/pages/airport.php?
ICAO=KSLI

Runways:

(A) RW 04L length 5900 ft width 150 ft
---- / hdg 40

(B) RW 04R length 8000 ft width 200 ft
---- / hdg 40

(C) RW 22L length 8000 ft width 200 ft
---- / hdg 220

(D) RW 22R length 5900 ft width 150 ft
---- / hdg 220

Location; KSLI
Day. 06 / Time. 12.56 Zulu
* Altimeter: 30.07
* Temperature: 11° c. 51.8°f.
* Wind from: 000° Speed 00 kn.
Dewpoint: 11° c.
Visibility: 10 Statute Miles.
Clouds: Broken 22000 ft.

KSLI 061256Z AUTO 00000KT 10SM BKN220 11/11 A3007 RMK AO2 SLP186 T01110111 PNO $


Wind - Calm.

 
 
jpsmedia worldairports.se 2019   terms of use